Voltar ao catálogo

SL-8 R/B

AtivoPO
NORAD 22889·ROCKET BODY·🇷🇺 Russia

Lançado Nov 2, 1993 de Plesetsk Cosmodrome

Loading…

Próximas Passagens (próximas 24 horas)

TLE

AtualizadoSource: Space-Track

Época: Sep 14, 2026, 21:12 UTC

1 22889U 93070B   26257.88350337  .00000074  00000-0  57342-4 0  9993
2 22889  82.9481 324.6899 0050952 121.0175 239.6001 13.78295748652437

Acompanhe SL-8 R/B em tempo real com AllMySat

Download on the App Store